{"data":{"norad_id":48269,"epoch":"2026-09-19T22:44:02.883840Z","epoch_age_seconds":62172,"freshness":"FRESH","line1":"1 48269U 21034B   26262.94725560  .00028357  00000+0  71270-3 0  9999","line2":"2 48269  97.5684 344.0901 0001428 229.9646 130.1475 15.39933926295618","mean_motion":15.39933926,"eccentricity":0.0001428,"inclination_deg":97.5684,"raan_deg":344.0901,"arg_perigee_deg":229.9646,"mean_anomaly_deg":130.1475,"bstar":0.0007127,"rev_number":29561,"period_min":93.510505592952,"perigee_km":445.32999178826,"apogee_km":447.27905228695,"semimajor_km":6824.4415220376,"source":"CELESTRAK","updated_at":"2026-09-20T09:00:34.868893Z"}}